User: anonymous   Login
Location: Stigler
(35.2540°N, 95.1230°W)
Time: 20:41:48
(UTC-05:00)
Language:

Cosmos 1805 - Orbit

View from above orbital plane
View from above orbital plane
View from above satellite
View from above satellite

Ground track
Ground track

The orbit data is extracted from the following two-line orbital elements,

1 17191U 86097A   17177.23801816 +.00001097 +00000-0 +62564-4 0  9995
2 17191 082.4743 020.5628 0006089 055.7337 304.4469 15.11771359664720
Epoch (UTC): 26 June 2017 05:42:44
Eccentricity: 0.0006089
inclination: 82.4743°
perigee height: 526 km
apogee height: 535 km
right ascension of ascending node: 20.5628°
argument of perigee: 55.7337°
revolutions per day: 15.11771359
mean anomaly at epoch: 304.4469°
orbit number at epoch: 66472

The dashed part of the orbit path shows where the satellite is in the earth's shadow,  

DLR